This demonstration page uses our WeatherBlox Daily Observations layout. Learn more.

Left ArrowRight Arrow

Hourly Observations for May 14, 2015

Temp ( °F °C ) Dew Point ( °F °C ) Humidity (%) Winds ( mph kmh ) Pressure ( in mb ) Visibility ( mi km ) Precip ( " mm )
12:15 am 00:15 Clear 52 11 43 6 72 72 NW 8 13 30.39 1029 10 16 N/A
12:35 am 00:35 Clear 52 11 43 6 72 72 NNW 5 7 30.42 1030 10 16 N/A
12:55 am 00:55 Clear 52 11 43 6 72 72 N 5 7 30.42 1030 10 16 N/A
1:15 am 01:15 Clear 52 11 43 6 72 72 N 3 6 30.42 1030 10 16 N/A
1:35 am 01:35 Clear 52 11 43 6 72 72 N 8 13 30.42 1030 10 16 N/A
1:55 am 01:55 Clear 50 10 43 6 76 76 NNW 7 11 30.42 1030 10 16 N/A
2:15 am 02:15 Clear 50 10 43 6 76 76 NNW 6 9 30.42 1030 10 16 N/A
2:35 am 02:35 Clear 50 10 43 6 76 76 N 6 9 30.42 1030 10 16 N/A
2:55 am 02:55 Clear 50 10 43 6 76 76 N 6 9 30.42 1030 10 16 N/A
3:15 am 03:15 Clear 46 8 43 6 87 87 NNW 5 7 30.45 1031 10 16 N/A
3:35 am 03:35 Clear 46 8 43 6 87 87 NNW 5 7 30.45 1031 10 16 N/A
3:55 am 03:55 Clear 46 8 43 6 87 87 NNW 5 7 30.45 1031 10 16 N/A
4:15 am 04:15 Clear 46 8 41 5 82 82 NNW 6 9 30.45 1031 10 16 N/A
4:35 am 04:35 Clear 46 8 41 5 82 82 NNW 5 7 30.45 1031 10 16 N/A
4:55 am 04:55 Clear 46 8 41 5 82 82 NNW 6 9 30.45 1031 10 16 N/A
5:15 am 05:15 Clear 45 7 41 5 87 87 NNW 5 7 30.45 1031 10 16 N/A
5:35 am 05:35 Clear 46 8 41 5 82 82 N 6 9 30.45 1031 10 16 N/A
5:55 am 05:55 Clear 45 7 41 5 87 87 NNW 3 6 30.45 1031 10 16 N/A
6:15 am 06:15 Sunny 46 8 41 5 82 82 NNW 5 7 30.45 1031 10 16 N/A
6:35 am 06:35 Sunny 45 7 41 5 87 87 NNW 5 7 30.45 1031 10 16 N/A
6:55 am 06:55 Sunny 46 8 41 5 82 82 N N/A 30.48 1032 10 16 N/A
7:15 am 07:15 Sunny 48 9 43 6 82 82 N N/A 30.48 1032 10 16 N/A
7:35 am 07:35 Sunny 52 11 41 5 67 67 N 6 9 30.48 1032 10 16 N/A
7:55 am 07:55 Sunny 52 11 41 5 67 67 N 8 13 30.48 1032 10 16 N/A
8:15 am 08:15 Sunny 54 12 41 5 63 63 N 7 11 30.48 1032 10 16 N/A
8:35 am 08:35 Sunny 55 13 41 5 59 59 NNE 7 11 30.50 1033 10 16 N/A
8:55 am 08:55 Sunny 55 13 41 5 59 59 NNE 8 13 30.48 1032 10 16 N/A
9:15 am 09:15 Sunny 55 13 41 5 59 59 NE 7 11 30.50 1033 10 16 N/A
9:35 am 09:35 Sunny 59 15 41 5 51 51 NNE 9 15 30.48 1032 10 16 N/A
9:55 am 09:55 Sunny 59 15 41 5 51 51 N 7 11 30.48 1032 10 16 N/A
10:15 am 10:15 Sunny 59 15 41 5 51 51 NNE 8 13 30.48 1032 10 16 N/A
10:35 am 10:35 Sunny 59 15 43 6 55 55 NNE 5 7 30.48 1032 10 16 N/A
10:55 am 10:55 Sunny 61 16 41 5 48 48 N N/A 30.48 1032 10 16 N/A
11:15 am 11:15 Sunny 63 17 41 5 45 45 ENE 3 6 30.48 1032 10 16 N/A
11:55 am 11:55 Sunny 63 17 39 4 42 42 W 5 7 30.48 1032 10 16 N/A
12:15 pm 12:15 Sunny 63 17 39 4 42 42 N 6 9 30.45 1031 10 16 N/A
12:35 pm 12:35 Sunny 64 18 39 4 40 40 NE 7 11 30.45 1031 10 16 N/A
12:55 pm 12:55 Sunny 64 18 39 4 40 40 SSE 3 6 30.45 1031 10 16 N/A
1:15 pm 13:15 Sunny 64 18 39 4 40 40 N N/A 30.42 1030 10 16 N/A
1:35 pm 13:35 Sunny 64 18 37 3 37 37 N N/A 30.42 1030 10 16 N/A
1:55 pm 13:55 Sunny 64 18 39 4 40 40 N N/A 30.42 1030 10 16 N/A
2:15 pm 14:15 Sunny 68 20 41 5 38 38 S 3 6 30.42 1030 10 16 N/A
2:35 pm 14:35 Sunny 68 20 41 5 38 38 N N/A 30.39 1029 10 16 N/A
2:55 pm 14:55 Sunny 68 20 41 5 38 38 N N/A 30.39 1029 10 16 N/A
3:15 pm 15:15 Sunny 68 20 41 5 38 38 NNW 5 7 30.39 1029 10 16 N/A
3:35 pm 15:35 Sunny 70 21 41 5 35 35 W 7 11 30.39 1029 10 16 N/A
3:55 pm 15:55 Sunny 68 20 41 5 38 38 W 3 6 30.36 1028 10 16 N/A
4:15 pm 16:15 Sunny 68 20 41 5 38 38 N N/A 30.36 1028 10 16 N/A
4:35 pm 16:35 Sunny 70 21 41 5 35 35 WSW 5 7 30.36 1028 10 16 N/A
4:55 pm 16:55 Sunny 70 21 41 5 35 35 WNW 3 6 30.36 1028 10 16 N/A
5:15 pm 17:15 Sunny 68 20 41 5 38 38 W 3 6 30.33 1027 10 16 N/A
5:35 pm 17:35 Sunny 70 21 39 4 33 33 N N/A 30.33 1027 10 16 N/A
5:55 pm 17:55 Sunny 70 21 39 4 33 33 W 3 6 30.33 1027 10 16 N/A
6:15 pm 18:15 Sunny 70 21 41 5 35 35 N N/A 30.33 1027 10 16 N/A
6:35 pm 18:35 Sunny 68 20 41 5 38 38 WSW 3 6 30.33 1027 10 16 N/A
6:55 pm 18:55 Sunny 70 21 43 6 38 38 N N/A 30.33 1027 10 16 N/A
7:15 pm 19:15 Sunny 68 20 43 6 40 40 N N/A 30.33 1027 10 16 N/A
7:35 pm 19:35 Sunny 66 19 43 6 43 43 N N/A 30.33 1027 10 16 N/A
7:55 pm 19:55 Sunny 64 18 43 6 46 46 WSW 3 6 30.33 1027 10 16 N/A
8:15 pm 20:15 Sunny 63 17 43 6 49 49 N N/A 30.33 1027 10 16 N/A
8:35 pm 20:35 Clear 63 17 45 7 52 52 N N/A 30.33 1027 10 16 N/A
8:55 pm 20:55 Clear 59 15 45 7 59 59 N N/A 30.33 1027 10 16 N/A
9:15 pm 21:15 Clear 59 15 46 8 63 63 S 5 7 30.33 1027 10 16 N/A
9:35 pm 21:35 Clear 55 13 45 7 67 67 SSW 6 9 30.33 1027 10 16 N/A
9:55 pm 21:55 Clear 55 13 45 7 67 67 SSW 7 11 30.33 1027 10 16 N/A
10:15 pm 22:15 Clear 55 13 45 7 67 67 SSW 6 9 30.33 1027 10 16 N/A
10:35 pm 22:35 Clear 54 12 46 8 77 77 SSW 6 9 30.36 1028 10 16 N/A
10:55 pm 22:55 Clear 54 12 46 8 77 77 S 6 9 30.39 1029 10 16 N/A
11:15 pm 23:15 Clear 57 14 46 8 67 67 S 5 7 30.36 1028 10 16 N/A
11:35 pm 23:35 Clear 57 14 46 8 67 67 S 5 7 30.33 1027 10 16 N/A
11:55 pm 23:55 Clear 57 14 46 8 67 67 S 3 6 30.33 1027 10 16 N/A

Powered by AerisWeather